Вернуться в каталог

IUS DEB

АктивенHEO
NORAD 26078·DEBRIS·🇺🇸 United States

Запущен Jul 23, 1999 с Cape Canaveral Space Force Station

Loading…

Ближайшие Пролёты (ближайшие 24 часа)

TLE

СвежийSource: Space-Track

Эпоха: Sep 13, 2026, 22:47 UTC

1 26078U 99040F   26256.94996061  .00005326  00000-0  74106-3 0  9997
2 26078  28.4068 127.4515 4386647 106.6382 304.8299  6.67322788316983

Отслеживайте IUS DEB в реальном времени с AllMySat

Download on the App Store